Weather History for KMRH - December, 2013

Change the Weather History Date:

Sunday, December 15, 2013

  Actual Average Record
Temperature  
Mean Temperature 54 °F -  
Max Temperature 63 °F 61 °F 76 °F (1984)
Min Temperature 45 °F 39 °F 20 °F (1962)
Degree Days  
Heating Degree Days 10    
Growing Degree Days 4 (Base 50)    
Moisture  
Dew Point 53 °F    
Average Humidity 89    
Maximum Humidity 100    
Minimum Humidity 74    
Precipitation  
Precipitation 0.10 in - - ()
Sea Level Pressure  
Sea Level Pressure 29.82 in    
Wind  
Wind Speed 10 mph (West)    
Max Wind Speed 15 mph    
Max Gust Speed 29 mph    
Visibility 7 miles    
Events Rain    
Averages and records for this station are not official NWS values.
T = Trace of Precipitation, MM = Missing Value Source: NWS Daily Summary

Daily Weather History Graph

Daily Weather History Graph

Search for Another Location

Airport or City:

Trip Planner

Search our weather history database for the weather conditions in past years. The results will help you decide how hot, cold, wet, or windy it might be!

Date:

Astronomy

Dec. 15, 2013 Rise Set
Actual Time 7:06 AM EST 4:57 PM EST
Civil Twilight 6:38 AM EST 5:25 PM EST
Nautical Twilight 6:07 AM EST 5:56 PM EST
Astronomical Twilight 5:36 AM EST 6:27 PM EST
Moon 3:57 PM EST (12/15) 5:23 AM EST (12/15)
Length of Visible Light 10h 46m
Length of Day
9h 50m
Waxing Gibbous, 97% of the Moon is Illuminated
Dec 15
Waxing Gibbous
Dec 17
Full
Dec 25
Last Quarter
Jan 1
New
Jan 7
First Quarter

Hourly Weather History & Observations

Time (EST) Temp. Windchill Dew Point Humidity Pressure Visibility Wind Dir Wind Speed Gust Speed Precip Events Conditions
12:50 AM 62.1 °F - 62.1 °F 100% 29.76 in 3.0 mi SW 8.1 mph - 0.02 in Rain Light Rain
12:55 AM 62.6 °F - 62.6 °F 100% 29.75 in 2.5 mi SW 9.2 mph - 0.03 in Rain Light Rain
12:58 AM 62.1 °F - 62.1 °F 100% 29.75 in 3.0 mi WSW 9.2 mph - 0.03 in Rain Light Rain
1:35 AM 63.0 °F - 62.1 °F 97% 29.73 in 4.0 mi WSW 13.8 mph - 0.00 in Rain Light Rain
1:58 AM 63.0 °F - 62.1 °F 97% 29.72 in 4.0 mi WSW 11.5 mph - 0.00 in   Overcast
2:30 AM 62.1 °F - 61.0 °F 96% 29.70 in 3.0 mi WSW 8.1 mph - 0.00 in Rain Light Rain
2:58 AM 61.0 °F - 61.0 °F 100% 29.71 in 3.0 mi SW 6.9 mph - 0.01 in Rain Light Rain
3:08 AM 60.1 °F - 60.1 °F 100% 29.70 in 2.0 mi SW 8.1 mph - 0.00 in Rain Light Rain
3:18 AM 60.1 °F - 60.1 °F 100% 29.71 in 1.5 mi SW 9.2 mph - 0.01 in Rain Rain
3:33 AM 60.1 °F - 60.1 °F 100% 29.72 in 2.5 mi WSW 10.4 mph - 0.03 in Rain Rain
3:53 AM 60.8 °F - 60.8 °F 100% 29.70 in 3.0 mi WSW 5.8 mph - 0.03 in Rain Light Rain
3:58 AM 60.1 °F - 60.1 °F 100% 29.70 in 2.5 mi West 6.9 mph - 0.03 in   Overcast
4:41 AM 60.1 °F - 60.1 °F 100% 29.72 in 4.0 mi WSW 9.2 mph - 0.00 in   Overcast
4:58 AM 59.0 °F - 59.0 °F 100% 29.73 in 4.0 mi West 10.4 mph - 0.00 in   Overcast
5:08 AM 60.1 °F - 60.1 °F 100% 29.73 in 5.0 mi West 12.7 mph - N/A   Overcast
5:58 AM 60.1 °F - 57.9 °F 93% 29.77 in 10.0 mi West 9.2 mph - N/A   Overcast
6:58 AM 57.9 °F - 55.9 °F 93% 29.78 in 10.0 mi SW 5.8 mph - 0.00 in Rain Light Rain
7:58 AM 57.9 °F - 55.0 °F 90% 29.81 in 6.0 mi West 9.2 mph - 0.02 in Rain Light Rain
8:58 AM 57.0 °F - 55.0 °F 93% 29.82 in 7.0 mi WSW 9.2 mph - 0.01 in Rain Light Rain
9:58 AM 57.9 °F - 55.0 °F 90% 29.80 in 9.0 mi West 11.5 mph - 0.00 in   Partly Cloudy
10:15 AM 57.0 °F - 54.0 °F 89% 29.84 in 10.0 mi West 13.8 mph 28.8 mph N/A   Mostly Cloudy
10:58 AM 57.0 °F - 54.0 °F 89% 29.82 in 10.0 mi WNW 11.5 mph - N/A   Overcast
11:58 AM 55.0 °F - 52.0 °F 89% 29.83 in 10.0 mi WNW 15.0 mph - N/A   Overcast
12:34 PM 53.1 °F - 50.0 °F 89% 29.81 in 8.0 mi NW 13.8 mph - N/A   Overcast
12:58 PM 54.0 °F - 51.1 °F 90% 29.84 in 8.0 mi WNW 9.2 mph - N/A   Mostly Cloudy
1:04 PM 54.0 °F - 51.1 °F 90% 29.84 in 8.0 mi West 10.4 mph - N/A   Mostly Cloudy
1:49 PM 55.0 °F - 48.9 °F 80% 29.85 in 10.0 mi WNW 8.1 mph - N/A   Mostly Cloudy
1:58 PM 55.0 °F - 48.9 °F 80% 29.85 in 10.0 mi WNW 8.1 mph - N/A   Overcast
2:23 PM 55.9 °F - 48.0 °F 75% 29.84 in 10.0 mi NW 8.1 mph - N/A   Scattered Clouds
2:58 PM 55.0 °F - 48.0 °F 77% 29.85 in 10.0 mi WNW 8.1 mph - N/A   Clear
3:58 PM 55.0 °F - 46.9 °F 74% 29.86 in 10.0 mi West 6.9 mph - N/A   Clear
4:47 PM 54.0 °F - 46.9 °F 77% 29.89 in 10.0 mi WNW 11.5 mph - N/A   Mostly Cloudy
4:58 PM 53.1 °F - 46.0 °F 77% 29.90 in 10.0 mi WNW 12.7 mph - N/A   Mostly Cloudy
5:11 PM 53.1 °F - 46.0 °F 77% 29.91 in 10.0 mi WNW 12.7 mph - N/A   Scattered Clouds
5:58 PM 51.1 °F - 46.0 °F 83% 29.94 in 10.0 mi WNW 8.1 mph - N/A   Scattered Clouds
6:58 PM 50.0 °F - 44.1 °F 80% 29.96 in 10.0 mi NW 10.4 mph - N/A   Clear
7:58 PM 48.0 °F - 43.0 °F 83% 29.99 in 10.0 mi West 6.9 mph - N/A   Clear
8:58 PM 48.0 °F - 43.0 °F 83% 30.01 in 10.0 mi West 4.6 mph - N/A   Clear
9:58 PM 48.0 °F - 43.0 °F 83% 30.04 in 10.0 mi WNW 12.7 mph - N/A   Clear
10:58 PM 46.9 °F - 39.9 °F 77% 30.06 in 10.0 mi NW 13.8 mph - N/A   Clear
11:58 PM 45.0 °F 39.3 °F 37.0 °F 74% 30.06 in 10.0 mi NNW 11.5 mph - N/A   Clear